Location: Dabrowa Gornicza
(50.3167°N, 19.2667°E)
Time: 17:57:55
(UTC+01:00)

ISS - Visible Passes

Search period start: 14 December 2018 00:00
Search period end: 24 December 2018 00:00
Orbit: 401 x 408 km, 51.6° (Epoch: 15 December)

Date Brightness Start Highest point End Pass type
(mag) Time Alt. Az. Time Alt. Az. Time Alt. Az.
14 Dec -0.2 17:17:15 10° SW 17:17:47 10° SW 17:18:18 10° SW visible
15 Dec -0.7 16:23:42 10° W 16:25:53 17° SW 16:28:04 10° S visible
23 Dec -0.3 06:15:03 10° SSE 06:16:10 11° SE 06:17:17 10° ESE visible
